Location: Cranbrook Institute of Science
(42.5830°N, 83.2450°W)
Time: 10:48:02
(UTC-05:00)

Daily predictions for brighter satellites

Satellite Brightness Start Highest point End
(mag) Time Altitude Azimuth Time Altitude Azimuth Time Altitude Azimuth
CSL-04 Debris 4.4 17:25:28 10° SE 17:30:38 50° ENE 17:35:49 10° N
ISS -2.4 17:31:04 10° NW 17:33:46 23° NNE 17:36:27 10° ENE
ATLAS 2AS CENTAUR R/B 3.5 17:31:18 10° S 17:38:28 44° ESE 17:46:00 10° NE
Abrixas rocket 2.7 17:35:37 10° SW 17:38:46 49° SSE 17:41:53 10° ENE
Aureole 1 Rocket 4.2 17:33:19 10° N 17:38:52 54° ENE 17:46:02 10° SE
BREEZE-M DEB (TANK) 3.1 17:37:37 10° W 17:39:37 32° N 17:42:50 10° ENE
NOSS 2-3 (E) 3.9 17:37:15 10° SSW 17:41:52 76° ESE 17:47:14 10° NE
Cosmos 2142 Rocket 4.5 17:40:13 10° S 17:46:23 76° E 17:52:32 10° N
ATLAS 3B R/B 3.2 17:41:49 10° NNW 17:47:57 36° NE 17:53:52 10° ESE
Meteor 1-28 Rocket 3.5 17:47:09 10° NNE 17:50:46 45° E 17:54:23 10° S
IRS-1A Rocket 4.5 17:46:13 10° SE 17:51:34 47° ENE 17:56:51 10° N
Cosmos 2369 Rocket 4.3 17:47:25 10° W 17:51:36 21° NW 17:55:49 10° N
Cosmos 1455 Rocket 3.8 17:48:36 10° NNE 17:52:35 32° ENE 17:56:31 10° SE
Cosmos 1743 3.3 17:49:38 10° N 17:53:14 35° ENE 17:56:49 10° SE
CSL-04 Rocket 3.7 17:48:02 10° SSE 17:53:26 86° ENE 17:58:58 10° NNW
Cosmos 1544 Rocket 4.0 17:52:16 10° N 17:56:21 37° ENE 18:00:22 10° SE
USA 215 3.9 17:50:08 10° SSE 17:56:35 61° SW 18:03:03 10° NW
Cosmos 1607 4.1 17:50:24 10° NW 17:56:56 86° WSW 18:03:23 10° SSE
Atlas Centaur 2 3.9 17:53:37 10° SW 17:57:04 18° S 18:00:06 10° SE
Cosmos 1697 Rocket 4.5 17:57:23 10° ESE 17:58:52 11° E 17:59:16 11° E
FENGYUN 3A 4.5 17:54:39 10° ESE 17:59:06 27° ENE 18:03:33 10° N
YAOGAN 1 2.9 17:56:14 10° SE 18:00:19 42° ENE 18:04:25 10° N
Okean 1 3.3 17:58:51 10° S 18:02:49 85° W 18:06:49 10° N
Cosmos 2279 Rocket 4.0 17:56:46 10° S 18:02:58 70° E 18:09:13 10° NNE
BREEZE-M DEB (TANK) 2.3 18:01:28 10° WNW 18:04:00 84° NNE 18:10:56 10° ESE
METEOR-M 4.2 18:04:52 10° SSE 18:10:02 53° ENE 18:15:13 10° N
Cosmos 1818 4.3 18:06:18 10° SW 18:11:33 51° NW 18:16:53 10° NNE
COSMO-SKYMED 1 3.1 18:08:57 10° NNE 18:12:57 38° E 18:16:59 10° SSE
Cosmos 1898 Rocket 4.1 18:09:25 10° SW 18:14:31 57° WNW 18:19:42 10° NNE
Cosmos 389 Rocket 2.3 18:11:14 10° N 18:14:45 78° ENE 18:18:12 10° SSE
Cosmos 1975 3.0 18:11:09 10° NNW 18:15:11 74° W 18:19:13 10° S
Landsat 4 4.0 18:12:41 12° NNE 18:16:07 48° E 18:19:48 10° S
Cosmos 2227 Rocket 2.5 18:10:50 10° NNW 18:16:12 41° ENE 18:21:31 10° SE
USA 116 3.1 18:13:07 10° NNE 18:16:23 67° ESE 18:19:28 10° S
Cosmos 2180 Rocket 4.5 18:10:47 10° S 18:17:05 74° E 18:23:29 10° N
Ariane Rocket 3.4 18:12:11 10° S 18:17:12 66° WSW 18:22:15 10° NNW
Cosmos 2219 3.3 18:11:47 10° NNW 18:17:24 79° WSW 18:23:01 10° SSE
NOSS 2-3 (C) 4.4 18:12:54 10° SW 18:17:30 58° NW 18:22:36 12° NNE
Cosmos 1271 Rocket 2.5 18:16:14 10° N 18:20:01 69° E 18:23:49 10° SSE
CZ-4 R/B 1.5 18:19:20 10° S 18:23:10 73° WSW 18:27:05 10° NNW
Cosmos 1484 Rocket 4.1 18:20:29 10° S 18:24:19 45° W 18:28:12 10° NNW
Cosmos 1975 Rocket 3.8 18:20:07 10° SSW 18:24:29 55° W 18:28:55 10° N
MONITOR-E 4.4 18:22:50 10° SSE 18:25:44 42° ENE 18:28:39 10° N
Cosmos 1125 Rocket 4.1 18:21:26 10° SSE 18:26:13 35° E 18:28:37 23° NE
Meteor 2-9 Rocket 4.2 18:21:12 10° N 18:26:38 52° ENE 18:31:54 10° SSE
Cosmos 2298 Rocket 4.4 18:22:35 10° SSW 18:27:51 64° WNW 18:33:09 10° NNE
Cosmos 1937 Rocket 4.1 18:25:41 10° SW 18:30:46 56° WNW 18:35:52 10° NNE
CENTAUR R/B 4.2 18:25:32 10° NNW 18:31:22 23° NNE 18:33:46 20° NE
SJ 16-02 2.1 18:27:33 10° SSE 18:31:27 32° E 18:32:10 30° E
DELTA 2 R/B (1) 3.9 18:27:08 10° WSW 18:32:35 56° SSE 18:35:44 25° E
Cosmos 1048 Rocket 4.3 18:30:12 10° N 18:35:20 43° ENE 18:40:26 10° SE
Cosmos 1980 Rocket 4.2 18:34:58 10° SE 18:35:11 11° SE 18:35:11 11° SE
ERS-2 2.0 18:35:47 10° SSE 18:39:25 70° ENE 18:43:05 10° N
Meteor 1-13 Rocket 4.1 18:35:23 10° S 18:40:56 86° E 18:46:38 10° N
SKYMED 3 4.4 18:39:23 14° NNE 18:43:07 82° ESE 18:47:27 10° S
Cosmos 2297 Rocket 2.2 18:38:04 10° NNW 18:43:40 57° ENE 18:49:13 10° SE
USA 238 DEB 3.7 18:38:35 10° NNW 18:45:43 75° NE 18:52:54 10° SE
USA 238 3.7 18:38:41 10° NNW 18:45:49 75° NE 18:53:00 10° SE
Meteor 2-4 Rocket 3.5 18:46:27 10° S 18:51:56 83° E 18:57:04 11° NNE
Cosmos 1536 Rocket 3.4 18:48:12 10° S 18:52:34 90° W 18:55:33 20° N
Cosmos 1666 3.8 18:49:58 10° NNW 18:53:34 44° W 18:57:07 10° SSW
Meteor 1-15 Rocket 4.4 18:48:45 10° N 18:54:35 54° ENE 19:00:21 10° SSE
SKYMED 2 3.9 18:57:35 15° N 19:01:05 64° WNW 19:05:22 10° SSW
Cosmos 372 Rocket 3.9 18:56:22 10° S 19:01:33 69° ESE 19:03:11 43° NE
ALOS 2.3 18:57:41 10° S 19:02:20 81° WSW 19:07:03 10° NNW
Cosmos 2266 Rocket 3.9 18:57:28 10° N 19:03:34 84° W 19:09:42 10° S
Hubble Space Telescope 3.4 19:06:15 10° SSW 19:07:34 11° S 19:08:42 10° SSE
ISS -2.6 19:07:16 10° WNW 19:09:27 38° WNW 19:09:27 38° WNW
Cosmos 1656 3.5 19:05:41 10° SSW 19:11:14 72° ESE 19:12:28 53° NE
Cosmos 2369 3.6 19:06:03 10° SSW 19:11:43 83° ESE 19:13:40 43° NNE
Cosmos 2278 3.6 19:08:16 10° SSW 19:13:56 82° ESE 19:15:39 47° NNE
Abrixas rocket 3.9 19:12:20 10° W 19:14:22 29° WNW 19:14:22 29° WNW
NOSS 3-2 (A) 3.9 19:09:44 10° NNW 19:17:15 72° NE 19:21:35 31° SE
EO 1 Del DPAF 4.4 19:19:19 31° NNW 19:20:30 41° WNW 19:24:06 10° SW
NOSS 3-2 (C) 4.0 19:14:45 10° NNW 19:22:10 61° NE 19:24:22 47° ESE
SPOT 3 Rocket 4.2 19:17:10 10° S 19:22:14 55° W 19:27:19 10° NNW
BREEZE-M DEB (TANK) 3.9 19:23:57 10° WNW 19:27:08 76° NNE 19:27:08 76° NNE
ATLAS 2AS CENTAUR R/B 3.7 19:21:50 10° WSW 19:29:26 51° NW 19:34:19 24° NNE
Cosmos 1244 Rocket 4.3 19:26:39 10° N 19:32:49 75° E 19:38:58 10° SSE
FengYun 1-2 T 4.2 19:28:56 10° SSE 19:34:32 87° WSW 19:40:13 10° NNW
Thor Agena Rocket 4.3 19:38:34 41° S 19:38:34 41° S 19:41:57 10° S
ATLAS 3B R/B 3.2 19:32:26 10° NW 19:38:52 53° WSW 19:45:08 10° SSE
Cosmos 724 4.4 19:34:12 10° NW 19:39:58 70° WSW 19:41:24 50° S
Cosmos 1697 Rocket 2.8 19:36:14 10° SSW 19:41:04 66° S 19:41:04 66° S
Atlas Centaur 2 4.0 19:43:03 10° SW 19:44:41 13° SSW 19:44:41 13° SSW
Cosmos 2082 4.5 19:39:53 10° NW 19:45:17 50° WSW 19:50:40 10° S
NOSS 3-4 (A) 3.6 19:43:58 10° SSW 19:49:05 61° S 19:49:05 61° S
NOSS 3-4 (C) 3.7 19:44:04 10° SSW 19:49:08 60° S 19:49:08 60° S
Cosmos 2227 Rocket 3.9 19:55:13 10° NW 20:00:03 30° WSW 20:04:52 10° SSW
SJ 16-02 3.6 20:06:30 10° WSW 20:09:14 23° W 20:09:14 23° W
Cosmos 1980 Rocket 4.1 20:15:20 10° SSW 20:17:01 20° SSW 20:17:01 20° SSW
CENTAUR R/B 3.7 20:15:47 10° NNW 20:20:58 44° NNW 20:20:58 44° NNW
Cosmos 2297 Rocket 4.4 20:23:08 10° NW 20:27:14 21° W 20:31:19 10° SSW
